Time,TemperatureF,DewpointF,PressureIn,WindDirection,WindDirectionDegrees,WindSpeedMPH,WindSpeedGustMPH,Humidity,HourlyPrecipIn,Conditions,Clouds,dailyrainin,SoftwareType,DateUTC
2013-07-28 00:02:00,51.7,50.6,30.31,SE,132,0.0,1.0,96,0.02,,---,0.03,VWS V14.01,2013-07-28 06:02:00,
2013-07-28 00:07:00,51.6,50.5,30.31,SE,128,0.0,0.0,96,0.01,,---,0.00,VWS V14.01,2013-07-28 06:07:00,
2013-07-28 00:12:00,51.4,50.3,30.31,ESE,120,0.0,0.0,96,0.01,,---,0.00,VWS V14.01,2013-07-28 06:12:00,
2013-07-28 00:17:00,51.4,50.3,30.31,ESE,120,0.0,0.0,96,0.01,,---,0.00,VWS V14.01,2013-07-28 06:17:00,
2013-07-28 00:22:00,51.2,50.1,30.31,ESE,122,0.0,0.0,96,0.01,,---,0.00,VWS V14.01,2013-07-28 06:22:00,
2013-07-28 00:27:00,51.2,50.1,30.31,ESE,123,0.0,0.0,96,0.01,,---,0.00,VWS V14.01,2013-07-28 06:27:00,
2013-07-28 00:32:00,51.2,50.1,30.30,ESE,123,0.0,0.0,96,0.01,,---,0.00,VWS V14.01,2013-07-28 06:32:00,
2013-07-28 00:37:00,51.1,50.0,30.30,ESE,123,0.0,0.0,96,0.00,,---,0.00,VWS V14.01,2013-07-28 06:37:00,
2013-07-28 00:42:00,51.1,50.3,30.30,ESE,121,0.0,0.0,97,0.00,,---,0.00,VWS V14.01,2013-07-28 06:42:00,
2013-07-28 00:47:00,51.0,50.2,30.30,ESE,120,0.0,0.0,97,0.00,,---,0.00,VWS V14.01,2013-07-28 06:47:00,
2013-07-28 00:52:00,51.1,50.3,30.30,ESE,120,0.0,0.0,97,0.00,,---,0.00,VWS V14.01,2013-07-28 06:52:00,
2013-07-28 00:57:00,51.1,50.3,30.30,ESE,120,0.0,0.0,97,0.00,,---,0.00,VWS V14.01,2013-07-28 06:57:00,
2013-07-28 01:02:00,51.1,50.3,30.29,ESE,120,0.0,0.0,97,0.00,,---,0.00,VWS V14.01,2013-07-28 07:02:00,
2013-07-28 01:07:00,51.0,50.2,30.29,ESE,120,0.0,0.0,97,0.00,,---,0.00,VWS V14.01,2013-07-28 07:07:00,
2013-07-28 01:12:00,51.1,50.3,30.29,ESE,120,0.0,0.0,97,0.00,,---,0.00,VWS V14.01,2013-07-28 07:12:00,
2013-07-28 01:17:00,51.1,50.3,30.29,ESE,120,0.0,0.0,97,0.00,,---,0.00,VWS V14.01,2013-07-28 07:17:00,
2013-07-28 01:22:00,51.1,50.3,30.29,ESE,120,0.0,1.0,97,0.00,,---,0.00,VWS V14.01,2013-07-28 07:22:00,
2013-07-28 01:27:00,51.1,50.3,30.29,ESE,120,0.0,1.0,97,0.00,,---,0.00,VWS V14.01,2013-07-28 07:27:00,
2013-07-28 01:32:00,51.0,50.2,30.28,ESE,120,0.0,1.0,97,0.00,,---,0.00,VWS V14.01,2013-07-28 07:32:00,
2013-07-28 01:37:00,51.0,50.2,30.28,ESE,120,0.0,0.0,97,0.00,,---,0.00,VWS V14.01,2013-07-28 07:37:00,
2013-07-28 01:42:00,51.0,50.2,30.28,ESE,120,0.0,0.0,97,0.00,,---,0.00,VWS V14.01,2013-07-28 07:42:00,
2013-07-28 01:47:00,51.0,50.2,30.28,ESE,120,0.0,0.0,97,0.00,,---,0.00,VWS V14.01,2013-07-28 07:47:00,
2013-07-28 01:52:00,51.0,50.2,30.27,ESE,120,0.0,0.0,97,0.00,,---,0.00,VWS V14.01,2013-07-28 07:52:00,
2013-07-28 01:57:00,51.0,50.2,30.27,ESE,120,0.0,0.0,97,0.00,,---,0.00,VWS V14.01,2013-07-28 07:57:00,
2013-07-28 02:02:00,51.0,50.2,30.27,ESE,120,0.0,0.0,97,0.00,,---,0.00,VWS V14.01,2013-07-28 08:02:00,
2013-07-28 02:07:00,51.1,50.3,30.26,ESE,120,0.0,0.0,97,0.00,,---,0.00,VWS V14.01,2013-07-28 08:07:00,
2013-07-28 02:12:00,51.1,50.3,30.26,ESE,120,0.0,0.0,97,0.00,,---,0.00,VWS V14.01,2013-07-28 08:12:00,
2013-07-28 02:17:00,51.1,50.3,30.26,ESE,120,0.0,0.0,97,0.00,,---,0.00,VWS V14.01,2013-07-28 08:17:00,
2013-07-28 02:22:00,51.2,50.4,30.25,ESE,120,0.0,0.0,97,0.00,,---,0.00,VWS V14.01,2013-07-28 08:22:00,
2013-07-28 02:27:00,51.2,50.4,30.25,ESE,120,0.0,0.0,97,0.00,,---,0.00,VWS V14.01,2013-07-28 08:27:00,
2013-07-28 02:32:00,51.2,50.4,30.25,ESE,120,0.0,0.0,97,0.00,,---,0.00,VWS V14.01,2013-07-28 08:32:00,
2013-07-28 02:37:00,51.2,50.4,30.24,ESE,120,0.0,0.0,97,0.00,,---,0.00,VWS V14.01,2013-07-28 08:37:00,
2013-07-28 02:42:00,51.2,50.4,30.24,ESE,120,0.0,0.0,97,0.00,,---,0.00,VWS V14.01,2013-07-28 08:42:00,
2013-07-28 02:47:00,51.2,50.4,30.24,North,356,0.0,0.0,97,0.00,,---,0.00,VWS V14.01,2013-07-28 08:47:00,
2013-07-28 02:52:00,51.0,50.2,30.24,NNW,343,0.0,0.0,97,0.00,,---,0.00,VWS V14.01,2013-07-28 08:52:00,
2013-07-28 02:57:00,50.9,50.1,30.23,NNW,344,0.0,0.0,97,0.00,,---,0.00,VWS V14.01,2013-07-28 08:57:00,
2013-07-28 03:02:00,50.9,50.1,30.23,NNW,344,0.0,0.0,97,0.00,,---,0.00,VWS V14.01,2013-07-28 09:02:00,
2013-07-28 03:07:00,50.8,50.0,30.23,NNW,344,0.0,0.0,97,0.00,,---,0.00,VWS V14.01,2013-07-28 09:07:00,
2013-07-28 03:12:00,50.6,49.8,30.22,West,267,0.0,0.0,97,0.00,,---,0.00,VWS V14.01,2013-07-28 09:12:00,
2013-07-28 03:17:00,50.6,49.8,30.22,West,267,0.0,0.0,97,0.00,,---,0.00,VWS V14.01,2013-07-28 09:17:00,
2013-07-28 03:22:00,50.6,49.8,30.22,West,267,0.0,0.0,97,0.00,,---,0.00,VWS V14.01,2013-07-28 09:22:00,
2013-07-28 03:27:00,50.5,49.7,30.22,West,267,0.0,0.0,97,0.00,,---,0.00,VWS V14.01,2013-07-28 09:27:00,
2013-07-28 03:32:00,50.5,49.7,30.22,West,267,0.0,0.0,97,0.00,,---,0.00,VWS V14.01,2013-07-28 09:32:00,
2013-07-28 03:37:00,50.5,49.7,30.22,West,267,0.0,0.0,97,0.00,,---,0.00,VWS V14.01,2013-07-28 09:37:00,
2013-07-28 03:42:00,50.5,49.7,30.21,West,266,0.0,0.0,97,0.00,,---,0.00,VWS V14.01,2013-07-28 09:42:00,
2013-07-28 03:47:00,50.5,49.7,30.22,West,267,0.0,0.0,97,0.00,,---,0.00,VWS V14.01,2013-07-28 09:47:00,
2013-07-28 03:52:00,50.6,50.1,30.22,West,267,0.0,0.0,98,0.00,,---,0.00,VWS V14.01,2013-07-28 09:52:00,
2013-07-28 03:57:00,50.5,49.7,30.21,West,266,0.0,0.0,97,0.00,,---,0.00,VWS V14.01,2013-07-28 09:57:00,
2013-07-28 04:02:00,50.3,49.5,30.22,West,267,0.0,0.0,97,0.00,,---,0.00,VWS V14.01,2013-07-28 10:02:00,
2013-07-28 04:07:00,50.1,49.3,30.21,West,267,0.0,0.0,97,0.00,,---,0.00,VWS V14.01,2013-07-28 10:07:00,
2013-07-28 04:12:00,49.8,49.0,30.21,West,267,0.0,0.0,97,0.00,,---,0.00,VWS V14.01,2013-07-28 10:12:00,
2013-07-28 04:17:00,49.7,48.9,30.21,West,268,0.0,0.0,97,0.00,,---,0.00,VWS V14.01,2013-07-28 10:17:00,
2013-07-28 04:22:00,49.9,49.1,30.21,West,271,0.0,0.0,97,0.00,,---,0.00,VWS V14.01,2013-07-28 10:22:00,
2013-07-28 04:27:00,50.0,49.5,30.21,West,270,0.0,0.0,98,0.00,,---,0.00,VWS V14.01,2013-07-28 10:27:00,
2013-07-28 04:32:00,50.1,49.6,30.21,WSW,253,0.0,1.0,98,0.00,,---,0.00,VWS V14.01,2013-07-28 10:32:00,
2013-07-28 04:37:00,50.2,49.7,30.21,WSW,255,0.0,0.0,98,0.00,,---,0.00,VWS V14.01,2013-07-28 10:37:00,
2013-07-28 04:42:00,50.2,49.7,30.21,WSW,253,0.0,0.0,98,0.00,,---,0.00,VWS V14.01,2013-07-28 10:42:00,
2013-07-28 04:47:00,50.2,49.7,30.21,West,281,0.0,0.0,98,0.00,,---,0.00,VWS V14.01,2013-07-28 10:47:00,
2013-07-28 04:52:00,50.0,49.2,30.21,West,273,0.0,0.0,97,0.00,,---,0.00,VWS V14.01,2013-07-28 10:52:00,
2013-07-28 04:57:00,50.6,50.6,30.21,West,271,0.0,0.0,100,0.00,,---,0.00,VWS V14.01,2013-07-28 10:57:00,
2013-07-28 05:02:00,50.6,50.6,30.21,West,271,0.0,0.0,100,0.00,,---,0.00,VWS V14.01,2013-07-28 11:02:00,
2013-07-28 05:07:00,50.6,50.6,30.21,West,271,0.0,0.0,100,0.00,,---,0.00,VWS V14.01,2013-07-28 11:07:00,
2013-07-28 05:12:00,50.6,50.6,30.21,West,271,0.0,0.0,100,0.00,,---,0.00,VWS V14.01,2013-07-28 11:12:00,
2013-07-28 05:17:00,50.6,50.6,30.20,West,271,0.0,0.0,100,0.00,,---,0.00,VWS V14.01,2013-07-28 11:17:00,
2013-07-28 05:22:00,50.6,50.6,30.21,West,271,0.0,0.0,100,0.00,,---,0.00,VWS V14.01,2013-07-28 11:22:00,
2013-07-28 05:27:00,50.6,50.6,30.21,West,271,0.0,0.0,100,0.00,,---,0.00,VWS V14.01,2013-07-28 11:27:00,
2013-07-28 05:32:00,50.6,50.6,30.20,West,271,0.0,0.0,100,0.00,,---,0.00,VWS V14.01,2013-07-28 11:32:00,
2013-07-28 05:37:00,50.6,50.6,30.20,West,271,0.0,0.0,100,0.00,,---,0.00,VWS V14.01,2013-07-28 11:37:00,
2013-07-28 05:42:00,50.6,50.6,30.20,West,271,0.0,0.0,100,0.00,,---,0.00,VWS V14.01,2013-07-28 11:42:00,
2013-07-28 05:47:00,50.6,50.6,30.20,West,271,0.0,0.0,100,0.00,,---,0.00,VWS V14.01,2013-07-28 11:47:00,
2013-07-28 05:52:00,50.6,50.6,30.21,West,271,0.0,0.0,100,0.00,,---,0.00,VWS V14.01,2013-07-28 11:52:00,
2013-07-28 05:57:00,50.6,50.6,30.20,West,271,0.0,0.0,100,0.00,,---,0.00,VWS V14.01,2013-07-28 11:57:00,
2013-07-28 06:02:00,50.6,50.6,30.20,West,271,0.0,0.0,100,0.00,,---,0.00,VWS V14.01,2013-07-28 12:02:00,
2013-07-28 06:07:00,50.6,50.6,30.20,West,271,0.0,0.0,100,0.00,,---,0.00,VWS V14.01,2013-07-28 12:07:00,
2013-07-28 06:12:00,50.6,50.6,30.21,West,271,0.0,0.0,100,0.00,,---,0.00,VWS V14.01,2013-07-28 12:12:00,
2013-07-28 06:17:00,50.6,50.6,30.21,West,271,0.0,0.0,100,0.00,,---,0.00,VWS V14.01,2013-07-28 12:17:00,
2013-07-28 06:22:00,50.6,50.6,30.21,West,271,0.0,0.0,100,0.00,,---,0.00,VWS V14.01,2013-07-28 12:22:00,
2013-07-28 06:27:00,50.6,50.6,30.21,West,271,0.0,0.0,100,0.00,,---,0.00,VWS V14.01,2013-07-28 12:27:00,
2013-07-28 06:32:00,50.6,50.6,30.21,West,271,0.0,0.0,100,0.00,,---,0.00,VWS V14.01,2013-07-28 12:32:00,
2013-07-28 06:37:00,50.6,50.6,30.22,West,271,0.0,0.0,100,0.00,,---,0.00,VWS V14.01,2013-07-28 12:37:00,
2013-07-28 06:42:00,50.6,50.6,30.22,West,271,0.0,0.0,100,0.00,,---,0.00,VWS V14.01,2013-07-28 12:42:00,
2013-07-28 06:47:00,50.6,50.6,30.21,West,271,0.0,0.0,100,0.00,,---,0.00,VWS V14.01,2013-07-28 12:47:00,
2013-07-28 06:52:00,50.6,50.6,30.21,West,271,0.0,0.0,100,0.00,,---,0.00,VWS V14.01,2013-07-28 12:52:00,
2013-07-28 06:57:00,50.6,50.6,30.21,West,271,0.0,0.0,100,0.00,,---,0.00,VWS V14.01,2013-07-28 12:57:00,
2013-07-28 07:02:00,50.6,50.6,30.21,West,271,0.0,0.0,100,0.00,,---,0.00,VWS V14.01,2013-07-28 13:02:00,
2013-07-28 07:07:00,50.7,49.9,30.22,NW,326,0.0,0.0,97,0.00,,---,0.00,VWS V14.01,2013-07-28 13:07:00,
2013-07-28 07:12:00,51.0,50.2,30.22,NNW,327,0.0,0.0,97,0.00,,---,0.00,VWS V14.01,2013-07-28 13:12:00,
2013-07-28 07:17:00,51.5,50.7,30.21,NNW,340,0.0,0.0,97,0.00,,---,0.00,VWS V14.01,2013-07-28 13:17:00,
2013-07-28 07:22:00,51.9,50.8,30.21,NNW,340,0.0,0.0,96,0.00,,---,0.00,VWS V14.01,2013-07-28 13:22:00,
2013-07-28 07:27:00,52.5,51.4,30.21,East,92,0.0,0.0,96,0.00,,---,0.00,VWS V14.01,2013-07-28 13:27:00,
2013-07-28 07:33:00,53.2,51.2,30.21,SSW,195,0.0,0.0,93,0.00,,---,0.00,VWS V14.01,2013-07-28 13:33:00,
2013-07-28 07:38:00,53.6,51.0,30.21,ENE,60,0.0,1.0,91,0.00,,---,0.00,VWS V14.01,2013-07-28 13:38:00,
2013-07-28 07:43:00,54.2,49.8,30.21,ESE,102,0.0,1.0,85,0.00,,---,0.00,VWS V14.01,2013-07-28 13:43:00,
2013-07-28 07:48:00,54.8,50.1,30.21,WSW,253,0.0,2.0,84,0.00,,---,0.00,VWS V14.01,2013-07-28 13:48:00,
2013-07-28 07:53:00,55.0,51.5,30.22,WSW,253,0.0,2.0,88,0.00,,---,0.00,VWS V14.01,2013-07-28 13:53:00,
2013-07-28 07:58:00,54.9,51.4,30.21,ESE,120,0.0,2.0,88,0.00,,---,0.00,VWS V14.01,2013-07-28 13:58:00,
2013-07-28 08:03:00,54.8,51.6,30.21,NNW,341,0.0,2.0,89,0.00,,---,0.00,VWS V14.01,2013-07-28 14:03:00,
2013-07-28 08:08:00,54.8,50.1,30.21,West,266,0.0,0.0,84,0.00,,---,0.00,VWS V14.01,2013-07-28 14:08:00,
2013-07-28 08:13:00,55.3,49.9,30.21,WSW,250,0.0,1.0,82,0.00,,---,0.00,VWS V14.01,2013-07-28 14:13:00,
2013-07-28 08:18:00,55.7,51.6,30.20,SE,124,0.0,1.0,86,0.00,,---,0.00,VWS V14.01,2013-07-28 14:18:00,
2013-07-28 08:23:00,55.3,52.4,30.21,SE,135,0.0,1.0,90,0.00,,---,0.00,VWS V14.01,2013-07-28 14:23:00,
2013-07-28 08:28:00,55.0,52.4,30.21,WSW,252,0.0,1.0,91,0.00,,---,0.00,VWS V14.01,2013-07-28 14:28:00,
2013-07-28 08:33:00,54.8,52.2,30.21,SE,136,0.0,1.0,91,0.00,,---,0.00,VWS V14.01,2013-07-28 14:33:00,
2013-07-28 08:38:00,54.8,52.5,30.21,SE,140,0.0,0.0,92,0.00,,---,0.00,VWS V14.01,2013-07-28 14:38:00,
2013-07-28 08:43:00,55.2,52.9,30.21,SE,141,0.0,0.0,92,0.00,,---,0.00,VWS V14.01,2013-07-28 14:43:00,
2013-07-28 08:48:00,56.3,53.4,30.21,SE,135,0.0,0.0,90,0.00,,---,0.00,VWS V14.01,2013-07-28 14:48:00,
2013-07-28 08:53:00,57.4,53.9,30.22,ESE,122,0.0,0.0,88,0.00,,---,0.00,VWS V14.01,2013-07-28 14:53:00,
2013-07-28 08:58:00,57.8,54.0,30.22,ESE,120,0.0,0.0,87,0.00,,---,0.00,VWS V14.01,2013-07-28 14:58:00,
2013-07-28 09:02:00,58.0,54.2,30.22,SSE,150,0.0,1.0,87,0.00,,---,0.00,VWS V14.01,2013-07-28 15:02:00,
2013-07-28 09:07:00,57.9,53.7,30.22,SE,129,0.0,0.0,86,0.00,,---,0.00,VWS V14.01,2013-07-28 15:07:00,
2013-07-28 09:12:00,57.5,53.3,30.22,SE,138,0.0,0.0,86,0.00,,---,0.00,VWS V14.01,2013-07-28 15:12:00,
2013-07-28 09:17:00,56.8,53.3,30.22,SSE,160,0.0,0.0,88,0.00,,---,0.00,VWS V14.01,2013-07-28 15:17:00,
2013-07-28 09:22:00,56.3,53.1,30.22,ESE,117,0.0,1.0,89,0.00,,---,0.00,VWS V14.01,2013-07-28 15:22:00,
2013-07-28 09:27:00,56.2,53.3,30.22,ESE,122,0.0,1.0,90,0.00,,---,0.00,VWS V14.01,2013-07-28 15:27:00,
2013-07-28 09:32:00,55.9,53.3,30.21,SE,128,0.0,1.0,91,0.00,,---,0.00,VWS V14.01,2013-07-28 15:32:00,
2013-07-28 09:37:00,55.4,52.8,30.21,SE,141,0.0,0.0,91,0.00,,---,0.00,VWS V14.01,2013-07-28 15:37:00,
2013-07-28 09:42:00,54.9,52.3,30.21,SE,126,0.0,0.0,91,0.00,,---,0.00,VWS V14.01,2013-07-28 15:42:00,
2013-07-28 09:47:00,54.4,52.1,30.21,SE,145,0.0,0.0,92,0.00,,---,0.00,VWS V14.01,2013-07-28 15:47:00,
2013-07-28 09:52:00,54.4,52.7,30.21,SE,127,0.0,0.0,94,0.00,,---,0.00,VWS V14.01,2013-07-28 15:52:00,
2013-07-28 09:57:00,54.7,53.0,30.21,SE,127,0.0,0.0,94,0.00,,---,0.00,VWS V14.01,2013-07-28 15:57:00,
2013-07-28 10:03:00,54.7,52.7,30.21,SE,128,0.0,0.0,93,0.00,,---,0.00,VWS V14.01,2013-07-28 16:03:00,
2013-07-28 10:07:00,54.6,52.6,30.22,SE,127,0.0,0.0,93,0.00,,---,0.00,VWS V14.01,2013-07-28 16:07:00,
2013-07-28 10:12:00,54.4,52.7,30.22,ESE,105,0.0,0.0,94,0.00,,---,0.00,VWS V14.01,2013-07-28 16:12:00,
2013-07-28 10:17:00,54.6,52.9,30.22,ESE,105,0.0,0.0,94,0.00,,---,0.00,VWS V14.01,2013-07-28 16:17:00,
2013-07-28 10:22:00,54.7,52.7,30.22,ESE,104,0.0,0.0,93,0.00,,---,0.00,VWS V14.01,2013-07-28 16:22:00,
2013-07-28 10:27:00,54.7,52.7,30.22,ESE,114,0.0,0.0,93,0.00,,---,0.00,VWS V14.01,2013-07-28 16:27:00,
2013-07-28 10:32:00,54.6,52.6,30.22,ESE,120,0.0,0.0,93,0.00,,---,0.00,VWS V14.01,2013-07-28 16:32:00,
2013-07-28 10:37:00,54.4,52.4,30.22,SE,127,0.0,0.0,93,0.00,,---,0.00,VWS V14.01,2013-07-28 16:37:00,
2013-07-28 10:42:00,54.3,52.6,30.23,SE,127,0.0,0.0,94,0.00,,---,0.00,VWS V14.01,2013-07-28 16:42:00,
2013-07-28 10:47:00,54.2,52.2,30.23,SE,134,0.0,0.0,93,0.00,,---,0.00,VWS V14.01,2013-07-28 16:47:00,
2013-07-28 10:52:00,54.0,52.3,30.23,SE,138,0.0,0.0,94,0.00,,---,0.00,VWS V14.01,2013-07-28 16:52:00,
2013-07-28 10:57:00,53.8,52.1,30.23,SE,130,0.0,0.0,94,0.00,,---,0.00,VWS V14.01,2013-07-28 16:57:00,
2013-07-28 11:02:00,53.7,52.0,30.23,SE,128,0.0,0.0,94,0.00,,---,0.00,VWS V14.01,2013-07-28 17:02:00,
2013-07-28 11:07:00,53.7,52.3,30.23,SE,145,0.0,0.0,95,0.00,,---,0.00,VWS V14.01,2013-07-28 17:07:00,
2013-07-28 11:12:00,53.6,51.9,30.23,SE,145,0.0,0.0,94,0.00,,---,0.00,VWS V14.01,2013-07-28 17:12:00,
2013-07-28 11:17:00,53.4,52.0,30.23,SE,127,0.0,0.0,95,0.00,,---,0.00,VWS V14.01,2013-07-28 17:17:00,
2013-07-28 11:22:00,53.3,51.9,30.23,SE,128,0.0,0.0,95,0.00,,---,0.00,VWS V14.01,2013-07-28 17:22:00,
2013-07-28 11:27:00,53.4,52.0,30.23,ESE,122,0.0,0.0,95,0.00,,---,0.00,VWS V14.01,2013-07-28 17:27:00,
2013-07-28 11:32:00,53.4,52.3,30.23,ESE,123,0.0,0.0,96,0.00,,---,0.00,VWS V14.01,2013-07-28 17:32:00,
2013-07-28 11:37:00,53.5,52.4,30.23,ESE,123,0.0,0.0,96,0.00,,---,0.00,VWS V14.01,2013-07-28 17:37:00,
2013-07-28 11:42:00,53.4,52.3,30.24,ESE,123,0.0,0.0,96,0.00,,---,0.00,VWS V14.01,2013-07-28 17:42:00,
2013-07-28 11:47:00,53.6,52.5,30.24,ESE,123,0.0,0.0,96,0.00,,---,0.00,VWS V14.01,2013-07-28 17:47:00,
2013-07-28 11:52:00,53.9,52.8,30.24,ESE,123,0.0,0.0,96,0.01,,---,0.01,VWS V14.01,2013-07-28 17:52:00,
2013-07-28 11:57:00,54.3,53.2,30.24,SE,143,0.0,0.0,96,0.01,,---,0.01,VWS V14.01,2013-07-28 17:57:00,
2013-07-28 12:02:00,54.6,53.2,30.24,ESE,120,0.0,0.0,95,0.01,,---,0.01,VWS V14.01,2013-07-28 18:02:00,
2013-07-28 12:07:00,55.0,53.9,30.24,SE,128,0.0,0.0,96,0.01,,---,0.01,VWS V14.01,2013-07-28 18:07:00,
2013-07-28 12:12:00,55.4,53.7,30.24,SE,145,0.0,0.0,94,0.01,,---,0.01,VWS V14.01,2013-07-28 18:12:00,
2013-07-28 12:17:00,55.4,53.4,30.24,ESE,122,0.0,0.0,93,0.01,,---,0.01,VWS V14.01,2013-07-28 18:17:00,
2013-07-28 12:22:00,55.2,52.9,30.24,SE,126,0.0,0.0,92,0.01,,---,0.01,VWS V14.01,2013-07-28 18:22:00,
2013-07-28 12:27:00,55.0,53.0,30.24,SE,136,0.0,0.0,93,0.02,,---,0.02,VWS V14.01,2013-07-28 18:27:00,
2013-07-28 12:32:00,54.9,52.9,30.24,SE,136,0.0,0.0,93,0.02,,---,0.02,VWS V14.01,2013-07-28 18:32:00,
2013-07-28 12:37:00,54.8,53.1,30.24,SE,136,0.0,0.0,94,0.02,,---,0.02,VWS V14.01,2013-07-28 18:37:00,
2013-07-28 12:42:00,54.6,52.6,30.24,SE,129,0.0,0.0,93,0.02,,---,0.02,VWS V14.01,2013-07-28 18:42:00,
2013-07-28 12:47:00,54.5,52.8,30.24,SE,131,0.0,0.0,94,0.03,,---,0.03,VWS V14.01,2013-07-28 18:47:00,
2013-07-28 12:52:00,54.4,52.7,30.24,SE,130,0.0,0.0,94,0.03,,---,0.03,VWS V14.01,2013-07-28 18:52:00,
2013-07-28 12:57:00,54.4,53.0,30.24,SE,131,0.0,0.0,95,0.04,,---,0.04,VWS V14.01,2013-07-28 18:57:00,
2013-07-28 13:02:00,54.5,53.1,30.24,SE,136,0.0,0.0,95,0.04,,---,0.04,VWS V14.01,2013-07-28 19:02:00,
2013-07-28 13:07:00,54.4,52.7,30.24,SE,135,0.0,0.0,94,0.03,,---,0.04,VWS V14.01,2013-07-28 19:07:00,
2013-07-28 13:12:00,54.4,52.7,30.24,SE,127,0.0,0.0,94,0.03,,---,0.04,VWS V14.01,2013-07-28 19:12:00,
2013-07-28 13:17:00,54.3,52.6,30.24,SE,130,0.0,0.0,94,0.03,,---,0.04,VWS V14.01,2013-07-28 19:17:00,
2013-07-28 13:22:00,54.5,53.1,30.24,SE,130,0.0,0.0,95,0.03,,---,0.04,VWS V14.01,2013-07-28 19:22:00,
2013-07-28 13:27:00,54.5,52.8,30.24,SE,127,0.0,0.0,94,0.04,,---,0.05,VWS V14.01,2013-07-28 19:27:00,
2013-07-28 13:32:00,54.6,52.9,30.24,SE,125,0.0,0.0,94,0.04,,---,0.05,VWS V14.01,2013-07-28 19:32:00,
2013-07-28 13:37:00,54.7,53.3,30.24,SE,133,0.0,0.0,95,0.03,,---,0.05,VWS V14.01,2013-07-28 19:37:00,
2013-07-28 13:42:00,54.7,53.3,30.24,SE,127,0.0,0.0,95,0.03,,---,0.05,VWS V14.01,2013-07-28 19:42:00,
2013-07-28 13:47:00,54.9,53.2,30.23,SE,125,0.0,0.0,94,0.03,,---,0.05,VWS V14.01,2013-07-28 19:47:00,
2013-07-28 13:52:00,54.7,53.0,30.24,SE,129,0.0,0.0,94,0.03,,---,0.05,VWS V14.01,2013-07-28 19:52:00,
2013-07-28 13:57:00,54.6,52.9,30.24,ESE,123,0.0,0.0,94,0.03,,---,0.05,VWS V14.01,2013-07-28 19:57:00,
2013-07-28 14:02:00,54.8,53.4,30.24,ESE,123,0.0,0.0,95,0.03,,---,0.05,VWS V14.01,2013-07-28 20:02:00,
2013-07-28 14:07:00,54.7,53.0,30.24,SE,131,0.0,0.0,94,0.01,,---,0.05,VWS V14.01,2013-07-28 20:07:00,
2013-07-28 14:12:00,54.6,52.9,30.24,SE,128,0.0,0.0,94,0.01,,---,0.05,VWS V14.01,2013-07-28 20:12:00,
2013-07-28 14:17:00,54.7,53.3,30.24,SE,125,0.0,0.0,95,0.01,,---,0.05,VWS V14.01,2013-07-28 20:17:00,
2013-07-28 14:22:00,54.6,52.9,30.24,ESE,117,0.0,0.0,94,0.01,,---,0.05,VWS V14.01,2013-07-28 20:22:00,
2013-07-28 14:27:00,54.6,52.9,30.24,ESE,120,0.0,0.0,94,0.01,,---,0.05,VWS V14.01,2013-07-28 20:27:00,
2013-07-28 14:32:00,54.9,53.5,30.23,ESE,123,0.0,0.0,95,0.01,,---,0.05,VWS V14.01,2013-07-28 20:32:00,
2013-07-28 14:37:00,55.1,53.4,30.23,ESE,120,0.0,0.0,94,0.00,,---,0.05,VWS V14.01,2013-07-28 20:37:00,
2013-07-28 14:42:00,55.2,53.5,30.24,SE,134,0.0,0.0,94,0.00,,---,0.05,VWS V14.01,2013-07-28 20:42:00,
2013-07-28 14:47:00,55.3,53.3,30.23,SE,129,0.0,0.0,93,0.00,,---,0.05,VWS V14.01,2013-07-28 20:47:00,
2013-07-28 14:52:00,55.3,53.3,30.23,ESE,120,0.0,0.0,93,0.00,,---,0.05,VWS V14.01,2013-07-28 20:52:00,
2013-07-28 14:57:00,55.4,53.4,30.23,ESE,122,0.0,0.0,93,0.00,,---,0.05,VWS V14.01,2013-07-28 20:57:00,
2013-07-28 15:02:00,55.6,53.9,30.24,SE,127,0.0,0.0,94,0.00,,---,0.05,VWS V14.01,2013-07-28 21:02:00,
2013-07-28 15:07:00,55.7,53.7,30.23,SE,132,0.0,0.0,93,0.00,,---,0.05,VWS V14.01,2013-07-28 21:07:00,
2013-07-28 15:12:00,55.6,53.6,30.24,SE,135,0.0,0.0,93,0.00,,---,0.05,VWS V14.01,2013-07-28 21:12:00,
2013-07-28 15:17:00,55.7,53.7,30.23,SE,134,0.0,0.0,93,0.00,,---,0.05,VWS V14.01,2013-07-28 21:17:00,
2013-07-28 15:22:00,55.8,53.5,30.23,SE,135,0.0,0.0,92,0.00,,---,0.05,VWS V14.01,2013-07-28 21:22:00,
2013-07-28 15:27:00,56.3,54.3,30.23,SE,126,0.0,0.0,93,0.00,,---,0.05,VWS V14.01,2013-07-28 21:27:00,
2013-07-28 15:32:00,56.8,54.5,30.23,SE,127,0.0,0.0,92,0.00,,---,0.05,VWS V14.01,2013-07-28 21:32:00,
2013-07-28 15:37:00,57.3,54.4,30.22,SE,131,0.0,0.0,90,0.00,,---,0.05,VWS V14.01,2013-07-28 21:37:00,
2013-07-28 15:42:00,57.7,54.5,30.22,SE,143,0.0,0.0,89,0.00,,---,0.05,VWS V14.01,2013-07-28 21:42:00,
2013-07-28 15:47:00,58.0,54.5,30.23,SE,141,0.0,0.0,88,0.00,,---,0.05,VWS V14.01,2013-07-28 21:47:00,
2013-07-28 15:52:00,58.5,55.3,30.22,ESE,116,0.0,0.0,89,0.00,,---,0.05,VWS V14.01,2013-07-28 21:52:00,
2013-07-28 15:57:00,58.9,55.4,30.22,ESE,115,0.0,0.0,88,0.00,,---,0.05,VWS V14.01,2013-07-28 21:57:00,
2013-07-28 16:02:00,59.3,56.1,30.22,SE,133,0.0,0.0,89,0.00,,---,0.05,VWS V14.01,2013-07-28 22:02:00,
2013-07-28 16:07:00,59.6,56.0,30.22,SE,129,0.0,0.0,88,0.00,,---,0.05,VWS V14.01,2013-07-28 22:07:00,
2013-07-28 16:12:00,59.5,55.3,30.21,SE,146,0.0,0.0,86,0.00,,---,0.05,VWS V14.01,2013-07-28 22:12:00,
2013-07-28 16:17:00,59.2,55.3,30.20,SE,131,0.0,0.0,87,0.00,,---,0.05,VWS V14.01,2013-07-28 22:17:00,
2013-07-28 16:22:00,59.2,55.7,30.20,ESE,120,0.0,0.0,88,0.00,,---,0.05,VWS V14.01,2013-07-28 22:22:00,
2013-07-28 16:27:00,59.3,55.4,30.20,ESE,120,0.0,0.0,87,0.00,,---,0.05,VWS V14.01,2013-07-28 22:27:00,
2013-07-28 16:32:00,59.7,55.8,30.20,ESE,123,0.0,0.0,87,0.00,,---,0.05,VWS V14.01,2013-07-28 22:32:00,
2013-07-28 16:37:00,60.5,56.6,30.20,East,96,0.0,0.0,87,0.00,,---,0.05,VWS V14.01,2013-07-28 22:37:00,
2013-07-28 16:42:00,61.3,56.4,30.19,SE,129,0.0,0.0,84,0.00,,---,0.05,VWS V14.01,2013-07-28 22:42:00,
2013-07-28 16:47:00,61.5,56.0,30.20,SE,132,0.0,1.0,82,0.00,,---,0.05,VWS V14.01,2013-07-28 22:47:00,
2013-07-28 16:52:00,61.3,55.8,30.19,SE,137,0.0,1.0,82,0.00,,---,0.05,VWS V14.01,2013-07-28 22:52:00,
2013-07-28 16:57:00,60.7,55.5,30.19,ESE,120,0.0,1.0,83,0.00,,---,0.05,VWS V14.01,2013-07-28 22:57:00,
2013-07-28 17:02:00,60.9,55.7,30.20,SSE,150,0.0,1.0,83,0.00,,---,0.05,VWS V14.01,2013-07-28 23:02:00,
2013-07-28 17:07:00,60.8,55.6,30.20,SSE,148,0.0,0.0,83,0.00,,---,0.05,VWS V14.01,2013-07-28 23:07:00,
2013-07-28 17:12:00,61.2,56.3,30.19,ESE,117,0.0,0.0,84,0.00,,---,0.05,VWS V14.01,2013-07-28 23:12:00,
2013-07-28 17:17:00,62.0,55.8,30.19,ESE,121,0.0,0.0,80,0.00,,---,0.05,VWS V14.01,2013-07-28 23:17:00,
2013-07-28 17:22:00,63.2,56.2,30.19,SE,129,0.0,0.0,78,0.00,,---,0.05,VWS V14.01,2013-07-28 23:22:00,
2013-07-28 17:27:00,63.5,56.9,30.19,NNW,347,0.0,0.0,79,0.00,,---,0.05,VWS V14.01,2013-07-28 23:27:00,
2013-07-28 17:32:00,64.0,56.3,30.19,SSE,160,0.0,1.0,76,0.00,,---,0.05,VWS V14.01,2013-07-28 23:32:00,
2013-07-28 17:37:00,64.6,55.4,30.19,SE,127,0.0,0.0,72,0.00,,---,0.05,VWS V14.01,2013-07-28 23:37:00,
2013-07-28 17:42:00,65.1,54.3,30.18,South,184,0.0,1.0,68,0.00,,---,0.05,VWS V14.01,2013-07-28 23:42:00,
2013-07-28 17:47:00,65.8,55.0,30.19,SSE,162,0.0,1.0,68,0.00,,---,0.05,VWS V14.01,2013-07-28 23:47:00,
2013-07-28 17:52:00,66.5,56.0,30.19,SE,124,0.0,1.0,69,0.00,,---,0.05,VWS V14.01,2013-07-28 23:52:00,
2013-07-28 17:57:00,65.6,56.0,30.18,SE,146,0.0,1.0,71,0.00,,---,0.05,VWS V14.01,2013-07-28 23:57:00,
2013-07-28 18:02:00,64.2,55.4,30.19,ESE,117,0.0,1.0,73,0.00,,---,0.05,VWS V14.01,2013-07-29 00:02:00,
2013-07-28 18:07:00,63.7,55.3,30.19,SE,129,0.0,0.0,74,0.00,,---,0.05,VWS V14.01,2013-07-29 00:07:00,
2013-07-28 18:12:00,63.4,55.7,30.18,ESE,120,0.0,0.0,76,0.00,,---,0.05,VWS V14.01,2013-07-29 00:12:00,
2013-07-28 18:17:00,62.9,55.2,30.19,SE,144,0.0,0.0,76,0.00,,---,0.05,VWS V14.01,2013-07-29 00:17:00,
2013-07-28 18:22:00,61.8,54.9,30.19,ESE,123,0.0,0.0,78,0.00,,---,0.05,VWS V14.01,2013-07-29 00:22:00,
2013-07-28 18:27:00,61.6,55.7,30.20,ESE,115,0.0,0.0,81,0.00,,---,0.05,VWS V14.01,2013-07-29 00:27:00,
2013-07-28 18:32:00,61.6,55.7,30.19,SE,132,0.0,0.0,81,0.00,,---,0.05,VWS V14.01,2013-07-29 00:32:00,
2013-07-28 18:37:00,61.1,55.9,30.20,ESE,121,0.0,0.0,83,0.00,,---,0.05,VWS V14.01,2013-07-29 00:37:00,
2013-07-28 18:42:00,61.0,56.5,30.20,ESE,117,0.0,0.0,85,0.00,,---,0.05,VWS V14.01,2013-07-29 00:42:00,
2013-07-28 18:47:00,60.6,55.8,30.20,SSE,159,0.0,0.0,84,0.00,,---,0.05,VWS V14.01,2013-07-29 00:47:00,
2013-07-28 18:52:00,59.7,55.2,30.21,SE,127,0.0,1.0,85,0.00,,---,0.05,VWS V14.01,2013-07-29 00:52:00,
2013-07-28 18:57:00,58.9,55.0,30.21,ESE,110,0.0,1.0,87,0.00,,---,0.05,VWS V14.01,2013-07-29 00:57:00,
2013-07-28 19:02:00,58.3,54.8,30.22,ESE,112,0.0,1.0,88,0.00,,---,0.05,VWS V14.01,2013-07-29 01:02:00,
2013-07-28 19:07:00,57.9,54.4,30.22,SE,136,0.0,1.0,88,0.00,,---,0.05,VWS V14.01,2013-07-29 01:07:00,
2013-07-28 19:13:00,57.5,54.3,30.23,SE,124,0.0,1.0,89,0.00,,---,0.05,VWS V14.01,2013-07-29 01:13:00,
2013-07-28 19:18:00,57.3,54.1,30.23,SE,124,0.0,1.0,89,0.00,,---,0.05,VWS V14.01,2013-07-29 01:18:00,
2013-07-28 19:23:00,57.1,54.2,30.23,ESE,114,0.0,1.0,90,0.00,,---,0.05,VWS V14.01,2013-07-29 01:23:00,
2013-07-28 19:28:00,57.0,54.1,30.23,ESE,114,0.0,1.0,90,0.00,,---,0.05,VWS V14.01,2013-07-29 01:28:00,
2013-07-28 19:33:00,56.7,54.1,30.23,ESE,117,0.0,1.0,91,0.00,,---,0.05,VWS V14.01,2013-07-29 01:33:00,
2013-07-28 19:38:00,56.3,53.7,30.23,SE,127,0.0,0.0,91,0.00,,---,0.05,VWS V14.01,2013-07-29 01:38:00,
2013-07-28 19:43:00,56.0,53.7,30.23,SE,139,0.0,0.0,92,0.00,,---,0.05,VWS V14.01,2013-07-29 01:43:00,
2013-07-28 19:48:00,55.8,53.5,30.23,SE,132,0.0,1.0,92,0.00,,---,0.05,VWS V14.01,2013-07-29 01:48:00,
2013-07-28 19:53:00,55.6,53.6,30.24,SE,133,0.0,1.0,93,0.00,,---,0.05,VWS V14.01,2013-07-29 01:53:00,
2013-07-28 19:58:00,55.4,53.4,30.24,SE,132,0.0,1.0,93,0.00,,---,0.05,VWS V14.01,2013-07-29 01:58:00,
2013-07-28 20:03:00,55.2,53.2,30.24,SE,124,0.0,1.0,93,0.00,,---,0.05,VWS V14.01,2013-07-29 02:03:00,
2013-07-28 20:08:00,55.1,53.1,30.24,SE,127,0.0,0.0,93,0.00,,---,0.05,VWS V14.01,2013-07-29 02:08:00,
2013-07-28 20:13:00,55.1,53.1,30.24,SE,127,0.0,0.0,93,0.00,,---,0.05,VWS V14.01,2013-07-29 02:13:00,
2013-07-28 20:18:00,55.0,53.0,30.24,SE,131,0.0,0.0,93,0.00,,---,0.05,VWS V14.01,2013-07-29 02:18:00,
2013-07-28 20:23:00,54.9,52.9,30.24,SE,131,0.0,0.0,93,0.00,,---,0.05,VWS V14.01,2013-07-29 02:23:00,
2013-07-28 20:28:00,54.8,53.1,30.24,SE,131,0.0,0.0,94,0.00,,---,0.05,VWS V14.01,2013-07-29 02:28:00,
2013-07-28 20:33:00,54.8,53.1,30.24,SE,131,0.0,0.0,94,0.00,,---,0.05,VWS V14.01,2013-07-29 02:33:00,
2013-07-28 20:38:00,54.7,53.0,30.24,SE,131,0.0,0.0,94,0.00,,---,0.05,VWS V14.01,2013-07-29 02:38:00,
2013-07-28 20:43:00,54.5,52.8,30.24,SE,131,0.0,0.0,94,0.00,,---,0.05,VWS V14.01,2013-07-29 02:43:00,
2013-07-28 20:48:00,54.3,52.6,30.24,SE,131,0.0,0.0,94,0.00,,---,0.05,VWS V14.01,2013-07-29 02:48:00,
2013-07-28 20:53:00,54.1,52.4,30.23,SE,131,0.0,0.0,94,0.00,,---,0.05,VWS V14.01,2013-07-29 02:53:00,
2013-07-28 20:58:00,53.9,52.2,30.24,SE,131,0.0,0.0,94,0.00,,---,0.05,VWS V14.01,2013-07-29 02:58:00,
2013-07-28 21:04:00,53.8,52.1,30.24,SE,131,0.0,0.0,94,0.00,,---,0.05,VWS V14.01,2013-07-29 03:04:00,
2013-07-28 21:09:00,53.5,51.8,30.24,SE,131,0.0,0.0,94,0.00,,---,0.05,VWS V14.01,2013-07-29 03:09:00,
2013-07-28 21:14:00,53.3,51.9,30.24,SE,131,0.0,0.0,95,0.00,,---,0.05,VWS V14.01,2013-07-29 03:14:00,
2013-07-28 21:19:00,53.3,51.9,30.24,SE,131,0.0,0.0,95,0.00,,---,0.05,VWS V14.01,2013-07-29 03:19:00,
2013-07-28 21:24:00,53.3,51.9,30.24,SE,131,0.0,0.0,95,0.00,,---,0.05,VWS V14.01,2013-07-29 03:24:00,
2013-07-28 21:29:00,53.3,51.9,30.24,SE,131,0.0,1.0,95,0.00,,---,0.05,VWS V14.01,2013-07-29 03:29:00,
2013-07-28 21:34:00,53.3,51.9,30.24,SE,129,0.0,1.0,95,0.00,,---,0.05,VWS V14.01,2013-07-29 03:34:00,
2013-07-28 21:39:00,53.4,52.3,30.24,SE,129,0.0,0.0,96,0.00,,---,0.05,VWS V14.01,2013-07-29 03:39:00,
2013-07-28 21:44:00,53.4,52.0,30.24,SE,129,0.0,1.0,95,0.00,,---,0.05,VWS V14.01,2013-07-29 03:44:00,
2013-07-28 21:49:00,53.5,52.4,30.24,SE,129,0.0,1.0,96,0.00,,---,0.05,VWS V14.01,2013-07-29 03:49:00,
2013-07-28 21:54:00,53.7,52.6,30.24,NNW,342,0.0,1.0,96,0.00,,---,0.05,VWS V14.01,2013-07-29 03:54:00,
2013-07-28 21:59:00,53.9,52.5,30.24,NNW,343,0.0,1.0,95,0.00,,---,0.05,VWS V14.01,2013-07-29 03:59:00,
2013-07-28 22:01:00,53.9,52.5,30.24,NNW,343,0.0,1.0,95,0.00,,---,0.05,VWS V14.01,2013-07-29 04:01:00,
2013-07-28 22:06:00,53.9,52.5,30.24,NNW,343,0.0,0.0,95,0.00,,---,0.05,VWS V14.01,2013-07-29 04:06:00,
2013-07-28 22:11:00,53.9,52.5,30.24,NNW,343,0.0,0.0,95,0.00,,---,0.05,VWS V14.01,2013-07-29 04:11:00,
2013-07-28 22:16:00,53.8,52.4,30.24,NNW,342,0.0,0.0,95,0.00,,---,0.05,VWS V14.01,2013-07-29 04:16:00,
2013-07-28 22:21:00,53.7,52.3,30.24,NNW,343,0.0,0.0,95,0.00,,---,0.05,VWS V14.01,2013-07-29 04:21:00,
2013-07-28 22:26:00,53.5,52.1,30.23,NNW,343,0.0,0.0,95,0.00,,---,0.05,VWS V14.01,2013-07-29 04:26:00,
2013-07-28 22:31:00,53.3,51.9,30.24,NNW,343,0.0,0.0,95,0.00,,---,0.05,VWS V14.01,2013-07-29 04:31:00,
2013-07-28 22:36:00,52.8,51.4,30.23,NNW,338,0.0,0.0,95,0.00,,---,0.05,VWS V14.01,2013-07-29 04:36:00,
2013-07-28 22:42:00,52.6,51.2,30.23,NNW,339,0.0,0.0,95,0.00,,---,0.05,VWS V14.01,2013-07-29 04:42:00,
2013-07-28 22:47:00,52.5,51.1,30.23,NNW,338,0.0,1.0,95,0.00,,---,0.05,VWS V14.01,2013-07-29 04:47:00,
2013-07-28 22:52:00,52.5,50.5,30.23,NNW,339,0.0,1.0,93,0.00,,---,0.05,VWS V14.01,2013-07-29 04:52:00,
2013-07-28 22:57:00,52.7,50.7,30.23,NNW,339,0.0,1.0,93,0.00,,---,0.05,VWS V14.01,2013-07-29 04:57:00,
2013-07-28 23:02:00,52.7,50.5,30.23,West,271,0.0,1.0,92,0.00,,---,0.05,VWS V14.01,2013-07-29 05:02:00,
2013-07-28 23:07:00,52.6,50.6,30.23,NNW,335,0.0,0.0,93,0.00,,---,0.05,VWS V14.01,2013-07-29 05:07:00,
2013-07-28 23:12:00,52.5,50.5,30.23,NNW,337,0.0,1.0,93,0.00,,---,0.05,VWS V14.01,2013-07-29 05:12:00,
2013-07-28 23:17:00,52.4,50.2,30.23,NNW,338,0.0,1.0,92,0.00,,---,0.05,VWS V14.01,2013-07-29 05:17:00,
2013-07-28 23:22:00,52.3,49.8,30.23,NNW,330,0.0,1.0,91,0.00,,---,0.05,VWS V14.01,2013-07-29 05:22:00,
2013-07-28 23:27:00,52.3,49.8,30.22,NW,318,0.0,1.0,91,0.00,,---,0.05,VWS V14.01,2013-07-29 05:27:00,
2013-07-28 23:32:00,52.4,49.6,30.22,NNW,335,0.0,1.0,90,0.00,,---,0.05,VWS V14.01,2013-07-29 05:32:00,
2013-07-28 23:37:00,53.0,49.5,30.22,NW,323,0.0,0.0,88,0.00,,---,0.05,VWS V14.01,2013-07-29 05:37:00,
2013-07-28 23:42:00,53.4,49.3,30.22,NW,319,0.0,0.0,86,0.00,,---,0.05,VWS V14.01,2013-07-29 05:42:00,
2013-07-28 23:47:00,53.6,49.5,30.22,NW,326,0.0,0.0,86,0.00,,---,0.05,VWS V14.01,2013-07-29 05:47:00,
2013-07-28 23:52:00,53.8,49.4,30.22,NNW,333,0.0,0.0,85,0.00,,---,0.05,VWS V14.01,2013-07-29 05:52:00,
2013-07-28 23:57:00,54.1,49.7,30.22,NW,319,0.0,0.0,85,0.00,,---,0.05,VWS V14.01,2013-07-29 05:57:00,